TimeMST,TemperatureF,Dew PointF,Humidity,Sea Level PressureIn,VisibilityMPH,Wind Direction,Wind SpeedMPH,Gust SpeedMPH,PrecipitationIn,Events,Conditions,WindDirDegrees,DateUTC
12:58 AM,57.7,23.4,27,30.02,10.0,East,6.9,-,N/A,,Clear,100,2012-11-16 07:58:00
1:58 AM,56.3,23.9,29,30.01,10.0,South,5.8,-,N/A,,Partly Cloudy,170,2012-11-16 08:58:00
2:58 AM,56.8,25.2,30,30.00,10.0,ESE,10.4,-,N/A,,Scattered Clouds,120,2012-11-16 09:58:00
3:58 AM,58.3,24.8,28,29.98,10.0,ESE,6.9,-,N/A,,Clear,120,2012-11-16 10:58:00
4:58 AM,56.8,25.2,30,29.99,10.0,SSE,4.6,-,N/A,,Clear,150,2012-11-16 11:58:00
5:58 AM,56.3,24.6,29,29.99,10.0,SE,9.2,-,N/A,,Clear,140,2012-11-16 12:58:00
6:58 AM,56.8,25.2,30,30.02,10.0,SE,9.2,-,N/A,,Partly Cloudy,140,2012-11-16 13:58:00
7:58 AM,58.5,25.7,29,30.04,10.0,ESE,5.8,-,N/A,,Partly Cloudy,110,2012-11-16 14:58:00
8:58 AM,65.1,26.8,24,30.05,10.0,West,4.6,-,N/A,,Clear,270,2012-11-16 15:58:00
9:58 AM,68.5,28.0,22,30.06,10.0,NE,1.2,-,N/A,,Clear,50,2012-11-16 16:58:00
10:58 AM,70.3,27.9,21,30.07,10.0,NNW,1.2,-,N/A,,Clear,340,2012-11-16 17:58:00
11:58 AM,72.5,23.4,16,30.06,10.0,WNW,5.8,-,N/A,,Partly Cloudy,300,2012-11-16 18:58:00
12:58 PM,73.4,23.9,16,30.03,10.0,WNW,6.9,-,N/A,,Partly Cloudy,290,2012-11-16 19:58:00
1:58 PM,75.7,19.4,12,30.00,10.0,Variable,3.5,-,N/A,,Partly Cloudy,0,2012-11-16 20:58:00
2:58 PM,74.7,15.1,10,30.00,10.0,NW,5.8,-,N/A,,Partly Cloudy,310,2012-11-16 21:58:00
3:29 PM,73.4,17.6,12,30.09,10.0,WNW,9.2,-,N/A,,Light Drizzle,300,2012-11-16 22:29:00
3:54 PM,73.4,19.4,13,30.10,10.0,West,5.8,-,N/A,,Scattered Clouds,280,2012-11-16 22:54:00
3:58 PM,72.9,18.9,13,30.02,10.0,NW,5.8,-,N/A,,Scattered Clouds,310,2012-11-16 22:58:00
4:15 PM,73.4,19.4,13,30.10,10.0,WNW,9.2,-,N/A,,Light Drizzle,300,2012-11-16 23:15:00
4:30 PM,71.6,23.0,16,30.09,10.0,NNW,5.8,-,N/A,,Scattered Clouds,330,2012-11-16 23:30:00
4:58 PM,72.1,20.8,14,30.01,10.0,NNW,5.8,-,N/A,,Mostly Cloudy,330,2012-11-16 23:58:00
5:58 PM,67.8,20.7,17,30.02,10.0,ENE,2.3,-,N/A,,Clear,60,2012-11-17 00:58:00
6:58 PM,62.6,21.4,21,30.04,10.0,SSE,3.5,-,N/A,,Clear,160,2012-11-17 01:58:00
7:58 PM,60.6,20.7,21,30.04,10.0,SE,3.5,-,N/A,,Clear,130,2012-11-17 02:58:00
8:58 PM,57.9,19.8,23,30.04,10.0,SE,6.9,-,N/A,,Partly Cloudy,130,2012-11-17 03:58:00
9:58 PM,56.5,21.4,26,30.05,10.0,ESE,6.9,-,N/A,,Clear,120,2012-11-17 04:58:00
10:58 PM,55.9,21.2,26,30.06,10.0,SSE,5.8,-,N/A,,Clear,150,2012-11-17 05:58:00
11:58 PM,55.2,21.6,27,30.04,10.0,SW,3.5,-,N/A,,Clear,220,2012-11-17 06:58:00